Zurück zum Katalog

GJZ 04

AktivMilitärLEO
NORAD 62293·PAYLOAD·🇨🇳 China

Gestartet Dec 12, 2024 von Jiuquan Satellite Launch Center

Loading…

Nächste Überflüge (nächste 24 Stunden)

TLE

AktuellSource: Space-Track

Epoche: Sep 14, 2026, 13:23 UTC

1 62293U 24238D   26257.55772201 -.00000041  00000-0  81104-4 0  9996
2 62293  59.9159   0.5461 0020928  66.4582 293.8622 13.75207751 88208

Verfolge GJZ 04 in Echtzeit mit AllMySat

Download on the App Store